Starlink 30851

operational
NORAD ID: 58215 Int'l Des: 2023-170 Owner: SPXS Country: US Constellation: starlink
LEOCIRCULAR

Starlink 30851について

説明を読み込み中...

リアルタイム位置

3D地球を読み込み中...

次回通過

高度履歴

Altitude vs Time

uPlot chart will show altitude changes over time

軌道要素

1 58215U 23170K 25304.01172225 -.00002076 00000-0 -13863-3 0 9999
2 58215 43.0027 180.4601 0001222 269.4739 90.5963 15.02545808110772
Epoch: Oct 31, 2025 • Age: 13 hours

現在のステータス

高度 558.5 km
速度 7.58 km/s
衛星直下点 3.71°N, 54.59°W
打ち上げ日 Nov 4, 2023
運用期間 1.9 years
タイプ internet

技術仕様

分類 Payload
質量 730.00 kg
乾燥質量 700.00 kg
総質量 730.00 kg
長さ 0.30 m
直径 4.10 m
スパン 29.00 m
形状 Box + pan
製造者 SPXS
バスタイプ Starlink V2M
フェーズステータス In Orbit
所有者/国 SPXS/US

大規模コンステレーション

Loading constellations...